User: anonymous   Login
Location: Ste-F�licit�
(48.8999°N, 67.3360°W)
Time: 23:17:40
(UTC-04:00)
Language:

EO-79 - Orbit

View from above orbital plane
View from above orbital plane
View from above satellite
View from above satellite

Ground track
Ground track

The orbit data is extracted from the following two-line orbital elements,

1 40025U 14033R   20296.58319045 +.00000371 +00000-0 +45196-4 0  9996
2 40025 097.9167 220.8804 0011068 238.1198 121.8942 14.89213184344014
Epoch (UTC): 22 October 2020 13:59:47
Eccentricity: 0.0011068
inclination: 97.9167°
perigee height: 592 km
apogee height: 608 km
right ascension of ascending node: 220.8804°
argument of perigee: 238.1198°
revolutions per day: 14.89213184
mean anomaly at epoch: 121.8942°
orbit number at epoch: 34401

The dashed part of the orbit path shows where the satellite is in the earth's shadow,  

DLR